This demonstration page uses our WeatherBlox Daily Observations layout. Learn more.

Hourly Observations for June 24, 2019

Temp ( °F °C ) Dew Point ( °F °C ) Humidity (%) Winds ( mph kmh ) Pressure ( in mb ) Visibility ( mi km ) Precip ( " mm )
12:15 am 00:15 Clear 70 21 63 17 78 78 SSW 3 6 29.94 1014 10 16.09344 0 0
12:35 am 00:35 Clear 70 21 63 17 78 78 SSW 3 6 29.94 1014 10 16.09344 0 0
12:55 am 00:55 Clear 70 21 63 17 78 78 Calm 29.94 1014 10 16.09344 0 0
1:15 am 01:15 Clear 70 21 63 17 78 78 SSW 3 6 29.94 1014 10 16.09344 0 0
1:55 am 01:55 Clear 68 20 63 17 83 83 Calm 29.91 1013 10 16.09344 0 0
2:15 am 02:15 Clear 64 18 63 17 94 94 Calm 29.91 1013 10 16.09344 0 0
2:35 am 02:35 Clear 64 18 63 17 94 94 Calm 29.91 1013 10 16.09344 0 0
2:55 am 02:55 Clear 64 18 63 17 94 94 Calm 29.91 1013 10 16.09344 0 0
3:15 am 03:15 Clear 64 18 63 17 94 94 Calm 29.91 1013 10 16.09344 0 0
3:35 am 03:35 Clear 63 17 63 17 100 100 Calm 29.91 1013 10 16.09344 0 0
3:55 am 03:55 Clear 63 17 61 16 94 94 Calm 29.88 1012 10 16.09344 0 0
4:15 am 04:15 Clear 63 17 61 16 94 94 Calm 29.88 1012 10 16.09344 0 0
4:35 am 04:35 Clear 63 17 61 16 94 94 Calm 29.91 1013 10 16.09344 0 0
4:55 am 04:55 Clear 63 17 63 17 100 100 Calm 29.91 1013 10 16.09344 0 0
5:15 am 05:15 Clear 63 17 61 16 94 94 Calm 29.91 1013 10 16.09344 0 0
5:35 am 05:35 Clear 63 17 63 17 100 100 Calm 29.91 1013 10 16.09344 0 0
5:55 am 05:55 Sunny 63 17 63 17 100 100 Calm 29.91 1013 10 16.09344 0 0
6:15 am 06:15 Sunny 64 18 63 17 94 94 Calm 29.91 1013 10 16.09344 0 0
6:35 am 06:35 Sunny 66 19 63 17 88 88 Calm 29.94 1014 10 16.09344 0 0
6:55 am 06:55 Sunny 64 18 63 17 94 94 Calm 29.94 1014 10 16.09344 0 0
7:15 am 07:15 Sunny 66 19 63 17 88 88 Calm 29.94 1014 10 16.09344 0 0
7:35 am 07:35 Partly Cloudy 68 20 63 17 83 83 ENE 3 6 29.91 1013 10 16.09344 0 0
7:55 am 07:55 Partly Cloudy 70 21 64 18 83 83 Calm 29.91 1013 10 16.09344 0 0
8:15 am 08:15 Partly Cloudy 72 22 64 18 78 78 Calm 29.91 1013 10 16.09344 0 0
8:35 am 08:35 Sunny 72 22 64 18 78 78 Calm 29.91 1013 10 16.09344 0 0
8:55 am 08:55 Sunny 73 23 66 19 78 78 Calm 29.94 1014 10 16.09344 0 0
9:15 am 09:15 Partly Cloudy 75 24 66 19 74 74 Calm 29.91 1013 10 16.09344 0 0
9:35 am 09:35 Partly Cloudy 79 26 68 20 70 70 Calm 29.91 1013 10 16.09344 0 0
9:55 am 09:55 Partly Cloudy 79 26 68 20 70 70 Calm 29.91 1013 10 16.09344 0 0
10:15 am 10:15 Mostly Cloudy 79 26 68 20 70 70 Calm 29.91 1013 10 16.09344 0 0
10:35 am 10:35 Mostly Cloudy 81 27 68 20 66 66 S 3 6 29.91 1013 10 16.09344 0 0
10:55 am 10:55 Partly Cloudy 82 28 68 20 62 62 Calm 29.91 1013 10 16.09344 0 0
11:15 am 11:15 Sunny 82 28 68 20 62 62 ESE 5 7 29.91 1013 10 16.09344 0 0
11:35 am 11:35 Sunny 86 30 68 20 55 55 SSW 6 9 29.88 1012 10 16.09344 0 0
11:55 am 11:55 Partly Cloudy 86 30 68 20 55 55 SW 5 7 29.88 1012 10 16.09344 0 0
12:15 pm 12:15 Partly Cloudy 88 31 68 20 52 52 SSW 6 9 29.85 1011 10 16.09344 0 0
12:35 pm 12:35 Mostly Cloudy 90 32 68 20 49 49 WSW 5 7 29.85 1011 10 16.09344 0 0
12:55 pm 12:55 Cloudy 88 31 68 20 52 52 SSW 6 9 29.85 1011 10 16.09344 0 0
1:15 pm 13:15 Mostly Cloudy 90 32 68 20 49 49 S 3 6 29.85 1011 10 16.09344 0 0
1:35 pm 13:35 Mostly Cloudy 90 32 68 20 49 49 WSW 6 9 29.85 1011 10 16.09344 0 0
1:55 pm 13:55 Mostly Cloudy 91 33 68 20 46 46 SW 6 9 29.85 1011 10 16.09344 0 0
2:15 pm 14:15 Partly Cloudy 90 32 68 20 49 49 S 8 13 29.83 1010 10 16.09344 0 0
2:35 pm 14:35 Mostly Cloudy 90 32 70 21 52 52 SW 5 7 29.85 1011 10 16.09344 0 0
2:55 pm 14:55 Cloudy 88 31 70 21 55 55 WSW 3 6 29.85 1011 10 16.09344 0 0
3:15 pm 15:15 Cloudy 88 31 72 22 59 59 WSW 6 9 29.85 1011 10 16.09344 0 0
3:35 pm 15:35 Cloudy 84 29 72 22 66 66 WSW 10 17 29.88 1012 10 16.09344 0 0
3:55 pm 15:55 Mostly Cloudy 81 27 73 23 79 79 SW 8 13 29.88 1012 10 16.09344 0 0
4:15 pm 16:15 Partly Cloudy 79 26 73 23 84 84 SW 6 9 29.88 1012 10 16.09344 0 0
4:35 pm 16:35 Mostly Cloudy 79 26 75 24 89 89 WSW 3 6 29.88 1012 10 16.09344 0 0
4:55 pm 16:55 Cloudy 79 26 75 24 89 89 SE 8 13 29.85 1011 10 16.09344 0 0
5:15 pm 17:15 Partly Cloudy 79 26 75 24 89 89 SE 5 7 29.85 1011 10 16.09344 0 0
5:35 pm 17:35 Sunny 81 27 75 24 84 84 SE 5 7 29.85 1011 10 16.09344 0 0
5:55 pm 17:55 Sunny 81 27 77 25 89 89 S 5 7 29.83 1010 10 16.09344 0 0
6:15 pm 18:15 Sunny 81 27 77 25 89 89 SSW 6 9 29.83 1010 10 16.09344 0 0
6:35 pm 18:35 Partly Cloudy 81 27 75 24 84 84 S 6 9 29.83 1010 10 16.09344 0 0
6:55 pm 18:55 Sunny 82 28 75 24 79 79 SSW 5 7 29.83 1010 10 16.09344 0 0
7:15 pm 19:15 Sunny 82 28 73 23 74 74 SSW 6 9 29.83 1010 10 16.09344 0 0
7:35 pm 19:35 Sunny 81 27 75 24 84 84 S 5 7 29.83 1010 10 16.09344 0 0
7:55 pm 19:55 Sunny 81 27 75 24 84 84 SSW 6 9 29.83 1010 10 16.09344 0 0
8:15 pm 20:15 Sunny 79 26 73 23 84 84 SSW 6 9 29.83 1010 10 16.09344 0 0
8:35 pm 20:35 Sunny 77 25 73 23 89 89 SSE 6 9 29.83 1010 10 16.09344 0 0
8:55 pm 20:55 Mostly Cloudy 77 25 73 23 89 89 S 5 7 29.83 1010 10 16.09344 0 0
9:15 pm 21:15 Partly Cloudy 77 25 73 23 89 89 SE 7 11 29.83 1010 10 16.09344 0 0
9:35 pm 21:35 Clear 75 24 73 23 94 94 SSE 6 9 29.83 1010 10 16.09344 0 0
9:55 pm 21:55 Clear 73 23 73 23 100 100 Calm 29.83 1010 10 16.09344 0 0
10:15 pm 22:15 Partly Cloudy 73 23 73 23 100 100 Calm 29.83 1010 10 16.09344 0 0
10:35 pm 22:35 Partly Cloudy with Nearby Thunderstorms 73 23 73 23 100 100 S 3 6 29.83 1010 10 16.09344 0 0
10:55 pm 22:55 Clear 73 23 73 23 100 100 S 5 7 29.83 1010 10 16.09344 0 0
11:15 pm 23:15 Clear 73 23 73 23 100 100 S 6 9 29.83 1010 10 16.09344 0 0
11:35 pm 23:35 Partly Cloudy 73 23 73 23 100 100 SW 3 6 29.83 1010 10 16.09344 0 0
11:55 pm 23:55 Mostly Cloudy 72 22 72 22 100 100 WSW 5 7 29.83 1010 10 16.09344 0 0

Powered by AerisWeather